This demonstration page uses our WeatherBlox Daily Observations layout. Learn more.

Left ArrowRight Arrow

38.89511, -77.03637

Hourly Observations for January 28, 2019

Temp ( °F °C ) Dew Point ( °F °C ) Humidity (%) Winds ( mph kmh ) Pressure ( in mb ) Visibility ( mi km ) Precip ( " mm )
12:52 am 00:52 Cloudy 40 4.4 16 -8.9 38 38 NNW 12 19 30.04 1017 10 16 0.00 0.00
1:52 am 01:52 Cloudy 38 3.3 17 -8.3 43 43 N 14 22 30.05 1018 10 16 0.00 0.00
2:52 am 02:52 Mostly Cloudy 35 1.7 17 -8.3 48 48 N 9 15 30.07 1018 10 16 0.00 0.00
3:52 am 03:52 Mostly Cloudy 34 1.1 17 -8.3 50 50 N 14 22 30.06 1018 10 16 0.00 0.00
4:52 am 04:52 Mostly Cloudy 33 0.6 13 -10.6 43 43 N 13 20 30.05 1018 10 16 0.00 0.00
5:52 am 05:52 Mostly Cloudy 32 0 10 -12.2 40 40 N 14 22 30.05 1018 10 16 0.00 0.00
6:52 am 06:52 Cloudy 32 0 9 -12.8 38 38 N 14 22 30.06 1018 10 16 0.00 0.00
7:52 am 07:52 Mostly Cloudy 32 0 10 -12.2 40 40 NNE 14 22 30.09 1019 10 16 0.00 0.00
8:52 am 08:52 Mostly Cloudy 32 0 9 -12.8 38 38 NE 15 24 30.12 1020 10 16 0.00 0.00
9:52 am 09:52 Mostly Cloudy 32 0 12 -11.1 43 43 ENE 12 19 30.14 1021 10 16 0.00 0.00
10:52 am 10:52 Mostly Cloudy 34 1.1 9 -12.8 35 35 NNE 10 17 30.14 1021 10 16 0.00 0.00
11:52 am 11:52 Mostly Cloudy 35 1.7 8 -13.3 32 32 NE 10 17 30.10 1019 10 16 0.00 0.00
12:52 pm 12:52 Mostly Cloudy 36 2.2 8 -13.3 31 31 VRB 5 7 30.09 1019 10 16 0.00 0.00
1:52 pm 13:52 Partly Cloudy 39 3.9 7 -13.9 26 26 NE 8 13 30.05 1018 10 16 0.00 0.00
2:52 pm 14:52 Partly Cloudy 39 3.9 7 -13.9 26 26 NNE 6 9 30.03 1017 10 16 0.00 0.00
3:52 pm 15:52 Partly Cloudy 39 3.9 4 -15.6 23 23 NE 6 9 30.03 1017 10 16 0.00 0.00
4:52 pm 16:52 Partly Cloudy 38 3.3 8 -13.3 29 29 VRB 6 9 30.02 1017 10 16 0.00 0.00
5:52 pm 17:52 Partly Cloudy 35 1.7 7 -13.9 31 31 ESE 10 17 30.02 1017 10 16 0.00 0.00
6:52 pm 18:52 Mostly Clear 33 0.6 7 -13.9 33 33 SSE 5 7 30.03 1017 10 16 0.00 0.00
7:52 pm 19:52 Mostly Clear 32 0 8 -13.3 36 36 ESE 3 6 30.04 1017 10 16 0.00 0.00
8:52 pm 20:52 Mostly Clear 32 0 12 -11.1 43 43 ENE 5 7 30.03 1017 10 16 0.00 0.00
9:52 pm 21:52 Mostly Clear 31 -0.6 12 -11.1 45 45 ESE 3 6 30.02 1017 10 16 0.00 0.00
10:52 pm 22:52 Mostly Clear 31 -0.6 12 -11.1 45 45 SSE 3 6 30.03 1017 10 16 0.00 0.00
11:52 pm 23:52 Mostly Clear 31 -0.6 14 -10 49 49 SSE 3 6 30.02 1017 10 16 0.00 0.00

Powered by AerisWeather